Location: Nakusp
(50.2330°N, 117.8000°W)
Time: 21:14:57
(UTC-07:00)

Daily predictions for brighter satellites

Satellite Brightness Start Highest point End
(mag) Time Altitude Azimuth Time Altitude Azimuth Time Altitude Azimuth
NOSS 2-2 (E) 4.1 21:21:40 10° SW 21:25:52 72° NW 21:31:04 10° NE
Cosmos 839 Rocket 4.3 21:21:46 10° NW 21:28:09 88° NE 21:35:45 10° SE
Cosmos 405 Rocket 3.6 21:25:02 10° SSW 21:28:44 53° WNW 21:32:34 10° N
Cosmos 2058 Rocket 3.7 21:25:11 10° N 21:29:24 42° ENE 21:33:38 10° SE
Cosmos 1452 Rocket 4.2 21:24:54 10° NNW 21:29:57 44° ENE 21:34:59 10° SE
Tiangong 2 2.7 21:28:04 10° SW 21:30:21 18° S 21:32:39 10° ESE
Cosmos 1980 Rocket 3.5 21:27:04 10° NNW 21:32:06 31° NE 21:37:04 10° ESE
YAOGAN 11 4.1 21:30:37 10° SSE 21:34:53 70° ENE 21:39:15 10° N
Okean 2 3.5 21:32:35 10° S 21:36:36 59° E 21:40:39 10° NNE
Lacrosse 5 rocket 3.1 21:32:46 10° WNW 21:37:01 36° N 21:41:20 10° ENE
Cosmos 1441 Rocket 3.3 21:33:37 10° SSW 21:37:21 77° WNW 21:41:07 10° N
Aureole 1 Rocket 2.3 21:34:25 10° SSW 21:37:30 75° WNW 21:40:31 10° NNE
Cosmos 1371 Rocket 4.4 21:32:25 10° NNW 21:37:43 64° WSW 21:42:55 10° S
SPOT 1/Viking Rocket 3.9 21:32:53 10° SE 21:37:54 53° ENE 21:42:55 10° N
Meteor 1-29 3.9 21:36:20 10° N 21:39:38 50° WNW 21:42:54 10° SSW
Cosmos 2322 Rocket 4.2 21:38:00 10° N 21:42:03 19° NE 21:46:04 10° E
Cosmos 2181 Rocket 4.4 21:36:14 10° SSE 21:42:17 49° E 21:48:18 10° NNE
ARGOS 3.2 21:40:51 10° SSE 21:46:16 83° ENE 21:51:44 10° NNW
ERS-1 Rocket 3.5 21:43:21 10° S 21:48:18 58° WSW 21:53:17 10° NNW
Terra 2.8 21:46:53 10° SE 21:51:10 34° ENE 21:55:27 10° N
Meteor 1-23 Rocket 4.3 21:45:54 10° SSW 21:51:29 83° WNW 21:57:10 10° N
SPOT 5 2.6 21:49:09 10° SSE 21:53:29 89° W 21:57:54 10° NNW
H-2A R/B 3.1 21:52:19 11° SE 21:56:18 35° ENE 22:00:25 10° N
ATLAS CENTAUR R/B 3.5 21:59:42 10° NNW 22:02:20 18° NNE 22:04:55 10° ENE
ISS -3.8 22:03:19 10° WSW 22:06:33 59° SSE 22:09:49 10° ENE
Cosmos 2278 4.0 22:02:09 10° NNW 22:07:49 65° WSW 22:13:11 11° SSE
COSMOS 2406 4.4 22:04:35 10° SW 22:10:05 46° NW 22:15:35 10° NNE
Cosmos 2082 Rocket 2.6 22:06:42 10° S 22:11:59 42° ESE 22:17:16 10° NE
Meteor 1-22 Rocket 4.4 22:07:18 10° N 22:12:31 55° ENE 22:16:58 15° SSE
SL-8 Rocket 4.0 22:10:52 10° N 22:17:10 86° E 22:23:07 12° S
Cosmos 2228 3.1 22:14:58 10° NNW 22:19:18 75° W 22:23:12 12° S
SL-24 DEB 4.5 22:14:42 10° S 22:19:18 71° W 22:23:59 10° N
USA 229 DEB 4.0 22:12:51 10° NW 22:19:58 74° NE 22:26:31 13° SE
USA 229 4.0 22:12:57 10° NW 22:20:04 73° NE 22:26:38 13° SE
Meteor 1-4 Rocket 2.5 22:16:50 10° N 22:20:29 76° ENE 22:23:05 17° SSE
Cosmos 921 Rocket 4.0 22:17:45 10° NNW 22:22:03 44° WSW 22:26:11 10° S
Cosmos 2366 rocket 4.0 22:16:48 10° N 22:23:00 73° ENE 22:28:15 15° SSE
H-2A R/B 2.1 22:21:05 12° S 22:25:39 73° WSW 22:30:46 10° NNW
Cosmos 2369 4.4 22:22:05 10° NW 22:27:35 48° WSW 22:32:38 12° S
Cosmos 1697 Rocket 2.7 22:22:35 10° NNW 22:28:14 84° WSW 22:32:41 17° SSE
USA 234 4.1 22:25:39 10° E 22:31:57 52° N 22:38:14 10° WNW
CZ-4B R/B 4.5 22:29:19 10° NNE 22:33:47 31° E 22:36:44 18° SE
SL-16 R/B 3.4 22:29:16 10° NNW 22:34:26 34° NE 22:39:28 10° ESE
Cosmos 1656 4.1 22:29:48 10° NW 22:35:08 55° WSW 22:39:30 15° S
Cosmos 1892 Rocket 4.2 22:31:11 10° SSW 22:35:33 56° WNW 22:39:55 10° N
Cosmos 1842 4.4 22:34:19 19° SE 22:36:10 28° E 22:39:34 10° NNE
Cosmos 1271 Rocket 3.2 22:33:44 10° N 22:37:31 48° ENE 22:39:50 21° SE
Cosmos 1602 Rocket 3.6 22:38:10 17° S 22:41:21 62° E 22:45:39 10° NNE
DMSP B5D2-2 4.1 22:37:27 10° NNE 22:42:46 71° ESE 22:47:29 13° S
SL-19 R/B 4.4 22:41:25 21° SSE 22:44:06 67° ENE 22:47:45 10° N
deb Chang Zheng 4 3.8 22:42:06 10° NNE 22:46:20 50° E 22:49:00 21° SSE
CZ-4 R/B 4.4 22:42:37 10° NNE 22:47:27 45° E 22:50:37 20° SSE
Cosmos 1833 Rocket 2.6 22:43:21 10° SSW 22:48:56 72° ESE 22:54:35 10° NNE
Cosmos 389 Rocket 3.7 22:47:18 10° N 22:50:26 30° ENE 22:52:00 21° ESE
Cosmos 1953 3.2 22:48:49 10° N 22:52:39 37° ENE 22:54:46 22° SE
Cosmos 1269 Rocket 4.4 22:51:09 19° S 22:54:41 47° ESE 22:59:46 10° NNE
COSMOS 2487 3.4 22:52:31 10° SW 22:56:00 50° WNW 22:59:31 10° NNE
Cosmos 1420 Rocket 4.3 22:52:57 10° NNW 22:58:09 60° WSW 23:01:42 20° S
Timation 2 Rocket 4.1 22:53:46 12° S 22:59:35 57° ESE 23:05:34 10° NE
DELTA 2 DEB (DPAF) 4.3 22:57:48 23° SSE 23:00:29 67° ENE 23:04:58 10° N
Cosmos 1048 Rocket 4.0 23:02:53 19° S 23:06:28 59° ESE 23:11:35 10° NNE
Tiangong 2 3.0 23:04:04 10° WSW 23:05:24 17° SW 23:05:24 17° SW
Cosmos 1331 Rocket 4.5 23:01:42 10° NNW 23:06:48 52° ENE 23:10:06 21° SE
CARTOSAT-1 4.2 23:04:29 19° S 23:07:21 50° W 23:11:35 10° NNW
Cosmos 1766 3.6 23:04:22 10° NNW 23:08:15 59° W 23:10:27 23° SSW
CZ-2C R/B 4.4 23:04:21 15° ESE 23:08:15 33° ENE 23:13:17 10° N
Cosmos 1544 3.0 23:05:06 10° N 23:08:45 87° E 23:10:24 31° SSE
Cosmos 1110 Rocket 4.3 23:03:35 10° NNW 23:08:49 61° ENE 23:12:06 22° SE
Cosmos 2360 Rocket 3.7 23:10:00 10° NNW 23:15:00 30° NE 23:19:57 10° ESE
Cosmos 1980 Rocket 2.4 23:10:54 10° NW 23:16:30 61° WSW 23:19:54 24° S
Lacrosse 5 rocket 2.0 23:12:18 10° NW 23:16:56 64° NNE 23:20:51 14° ESE
Cosmos 1470 3.4 23:20:25 10° N 23:24:16 45° ENE 23:25:55 28° SE
Meteor 1-21 4.3 23:21:30 18° SSW 23:25:49 85° WNW 23:31:38 10° NNE
Cosmos 2322 Rocket 2.4 23:21:28 10° NNW 23:27:11 70° ENE 23:30:47 23° SE
Terra 3.0 23:25:42 17° SSW 23:28:53 35° W 23:33:17 10° NNW
Cosmos 1758 Rocket 3.9 23:27:49 31° SSE 23:29:34 50° E 23:33:48 10° NNE
H-2A R/B 3.5 23:29:27 17° SSW 23:32:19 32° W 23:36:24 10° NNW
Cosmos 1758 3.4 23:30:14 10° NNW 23:34:14 72° W 23:35:56 33° S
Nadezhda 3 Rocket 4.0 23:31:33 21° S 23:36:01 89° E 23:42:25 10° N
USA 267 3.8 23:31:14 10° ENE 23:37:10 36° SE 23:40:17 24° S
Cosmos 2251 Rocket 4.3 23:35:50 26° SE 23:37:54 36° ESE 23:42:47 10° NE
Cosmos 2239 Rocket 4.4 23:31:58 10° N 23:38:11 89° E 23:41:53 26° S
Cosmos 2098 Rocket 4.1 23:35:01 10° N 23:39:10 42° ENE 23:41:49 24° SE
Cosmos 1707 3.8 23:38:31 27° ESE 23:39:26 30° E 23:42:51 10° NNE
SeaSat 1 2.7 23:36:46 23° SE 23:39:49 62° NE 23:44:43 10° NNW
Cosmos 1805 3.9 23:36:03 10° NNW 23:39:50 48° W 23:41:32 28° SSW
ATLAS CENTAUR R/B 1.0 23:38:10 10° NW 23:41:54 85° NE 23:43:11 38° SE
EP 2 4.4 23:42:08 57° ESE 23:42:08 57° ESE 23:44:49 10° NE
ISS -3.5 23:39:48 10° W 23:43:05 67° N 23:46:23 10° E
SME Rocket 3.2 23:41:17 29° SSE 23:43:48 89° WSW 23:47:48 10° NNW
NOSS 3-1 (C) 4.0 23:37:23 10° NW 23:44:48 82° SW 23:50:31 22° SE
Cosmos 1821 Rocket 4.0 23:40:36 10° N 23:46:53 82° W 23:50:40 26° S
Lacrosse 5 3.0 23:48:51 24° SE 23:48:55 24° SE 23:52:56 10° ENE
CZ-2C R/B 3.3 23:45:33 10° NNE 23:50:54 43° E 23:53:22 28° SSE
CZ-4B R/B 3.8 23:53:05 10° E 23:54:30 13° ENE 23:56:02 10° NNE
